Time_in_sec,gx,gy,gz
1326901649.12820625,0.05174143,-0.01194942,-0.99858902
1326901649.17829013,0.05131107,-0.01227247,-0.99860731
1326901649.22553444,0.05097592,-0.01209072,-0.99862669
1326901649.27361488,0.05093107,-0.01188747,-0.99863142
1326901649.32463813,0.05104739,-0.01179104,-0.99862662
1326901649.37363315,0.05100498,-0.01168377,-0.99863005
1326901649.42554688,0.05078716,-0.01184199,-0.99863929
1326901649.47653437,0.05111159,-0.01164079,-0.99862510
1326901649.52572680,0.05102944,-0.01176771,-0.99862782
1326901649.57788992,0.05114302,-0.01178321,-0.99862182
1326901649.61652088,0.05114254,-0.01178045,-0.99862188
1326901649.68078017,0.05094616,-0.01187899,-0.99863075
1326901649.72456861,0.05154306,-0.01167961,-0.99860247
1326901649.77363515,0.05142937,-0.01170544,-0.99860803
1326901649.82452965,0.05128109,-0.01166393,-0.99861614
1326901649.86556268,0.05126165,-0.01180674,-0.99861546
1326901649.92721272,0.05138100,-0.01160883,-0.99861165
1326901649.97732568,0.05129177,-0.01162705,-0.99861603
1326901650.02456689,0.05118096,-0.01175638,-0.99862020
1326901650.07355785,0.05115904,-0.01161440,-0.99862298
1326901650.12463117,0.05133704,-0.01181893,-0.99861145
1326901650.17362070,0.05117537,-0.01196482,-0.99861801
1326901650.22526693,0.05130037,-0.01204817,-0.99861059
1326901650.27655077,0.05132635,-0.01180380,-0.99861217
1326901650.32552958,0.05116442,-0.01154603,-0.99862350
1326901650.37356949,0.05117425,-0.01150737,-0.99862344
1326901650.42456722,0.05120112,-0.01155183,-0.99862155
1326901650.47353077,0.05119706,-0.01139261,-0.99862359
1326901650.52556825,0.05137432,-0.01130012,-0.99861553
1326901650.57658529,0.05139657,-0.01129945,-0.99861440
1326901650.62454128,0.05155945,-0.01114396,-0.99860775
1326901650.67764258,0.05178537,-0.01110461,-0.99859650
1326901650.72700310,0.05161768,-0.01108509,-0.99860540
1326901650.77352738,0.05141253,-0.01093031,-0.99861768
1326901650.82463169,0.05134055,-0.01075752,-0.99862326
1326901650.86552548,0.05121206,-0.01088159,-0.99862852
1326901650.92465472,0.05139026,-0.01098999,-0.99861818
1326901650.97360611,0.05129408,-0.01098016,-0.99862323
1326901651.02503204,0.05132053,-0.01097522,-0.99862192
1326901651.07755232,0.05108749,-0.01113623,-0.99863209
1326901651.12548995,0.05099892,-0.01122312,-0.99863565
1326901651.17669249,0.05106527,-0.01143562,-0.99862984
1326901651.22565365,0.05094279,-0.01123817,-0.99863834
1326901651.27753711,0.05091930,-0.01118609,-0.99864012
1326901651.32454252,0.05087674,-0.01119443,-0.99864220
1326901651.37363696,0.05106207,-0.01125714,-0.99863204
1326901651.42453480,0.05106475,-0.01114143,-0.99863320
1326901651.47660375,0.05109810,-0.01092766,-0.99863385
1326901651.52607536,0.05115923,-0.01084881,-0.99863158
1326901651.57765698,0.05125244,-0.01084005,-0.99862690
1326901651.61993480,0.05111955,-0.01077180,-0.99863445
1326901651.67751122,0.05107230,-0.01076077,-0.99863698
1326901651.72467136,0.05168183,-0.01037126,-0.99860975
1326901651.77749777,0.05157342,-0.01027913,-0.99861630
1326901651.82451606,0.05141784,-0.01016417,-0.99862550
1326901651.86565280,0.05130024,-0.01027518,-0.99863042
1326901651.92551899,0.05138451,-0.01015605,-0.99862730
1326901651.97772741,0.05172617,-0.01035729,-0.99860760
1326901652.02467632,0.05185444,-0.01029444,-0.99860159
1326901652.07754517,0.05194416,-0.01019248,-0.99859798
1326901652.12465572,0.05190857,-0.01003555,-0.99860142
1326901652.17361903,0.05210559,-0.01000063,-0.99859151
1326901652.22459459,0.05210279,-0.00998498,-0.99859181
1326901652.27359867,0.05214026,-0.00976781,-0.99859200
1326901652.32556701,0.05198198,-0.00960700,-0.99860181
1326901652.37764168,0.05178307,-0.00961319,-0.99861209
1326901652.42458606,0.05193004,-0.00943433,-0.99860616
1326901652.47360659,0.05206778,-0.00971833,-0.99859626
1326901652.52459931,0.05218809,-0.00953426,-0.99859176
1326901652.57678127,0.05239490,-0.00952587,-0.99858101
1326901652.62451911,0.05247895,-0.00950905,-0.99857676
1326901652.67661214,0.05273926,-0.00983656,-0.99855987
1326901652.72701287,0.05284622,-0.00967017,-0.99855584
1326901652.77366996,0.05279351,-0.00959138,-0.99855939
1326901652.82455659,0.05291038,-0.00951484,-0.99855393
1326901652.86552548,0.05303041,-0.00953007,-0.99854742
1326901652.92653799,0.05332319,-0.00950306,-0.99853209
1326901652.97363496,0.05369063,-0.00967200,-0.99851078
1326901653.02852631,0.05371183,-0.00940788,-0.99851216
1326901653.07720447,0.05388061,-0.00938915,-0.99850324
1326901653.12553048,0.05398176,-0.00950422,-0.99849669
1326901653.17759371,0.05400153,-0.00930831,-0.99849747
1326901653.22463012,0.05423245,-0.00905401,-0.99848729
1326901653.27364278,0.05408216,-0.00901221,-0.99849582
1326901653.32555246,0.05406466,-0.00909620,-0.99849601
1326901653.37376881,0.05412708,-0.00892929,-0.99849413
1326901653.42521715,0.05411849,-0.00880029,-0.99849574
1326901653.47777462,0.05397608,-0.00864278,-0.99850482
1326901653.52554917,0.05422270,-0.00859537,-0.99849187
1326901653.57467580,0.05434156,-0.00849828,-0.99848624
1326901653.62555265,0.05442201,-0.00855627,-0.99848136
1326901653.67865658,0.05453606,-0.00839140,-0.99847654
1326901653.72566700,0.05451156,-0.00821478,-0.99847935
1326901653.77367115,0.05452183,-0.00816275,-0.99847921
1326901653.82507706,0.05459118,-0.00822682,-0.99847490
1326901653.87768888,0.05465310,-0.00821180,-0.99847163
1326901653.92849398,0.05448371,-0.00826717,-0.99848044
1326901653.97659779,0.05437212,-0.00755345,-0.99849217
1326901654.02467561,0.05420520,-0.00761098,-0.99850081
1326901654.07353044,0.05414200,-0.00761572,-0.99850420
1326901654.12462425,0.05418053,-0.00769821,-0.99850148
1326901654.17355561,0.05459087,-0.00743290,-0.99848114
1326901654.22452784,0.05465275,-0.00722113,-0.99847931
1326901654.27670336,0.05462468,-0.00695874,-0.99848271
1326901654.32583237,0.05444851,-0.00680677,-0.99849338
1326901654.37663865,0.05456952,-0.00668335,-0.99848761
1326901654.42463017,0.05478846,-0.00672959,-0.99847531
1326901654.47354198,0.05475169,-0.00584868,-0.99848287
1326901654.52554750,0.05474444,-0.00592796,-0.99848280
1326901654.57754254,0.05471794,-0.00603394,-0.99848362
1326901654.62555456,0.05454150,-0.00589880,-0.99849408
1326901654.67659640,0.05465336,-0.00594891,-0.99848767
1326901654.72554493,0.05466900,-0.00577911,-0.99848781
1326901654.77764034,0.05479447,-0.00571795,-0.99848128
1326901654.82458186,0.05461350,-0.00555000,-0.99849214
1326901654.87753534,0.05442709,-0.00530813,-0.99850364
1326901654.92467332,0.05444459,-0.00452388,-0.99850655
1326901654.97363496,0.05425818,-0.00420829,-0.99851807
1326901655.02454734,0.05422362,-0.00434772,-0.99851935
1326901655.07764459,0.05421417,-0.00410978,-0.99852087
1326901655.12590432,0.05413744,-0.00421342,-0.99852460
1326901655.17766452,0.05395934,-0.00443881,-0.99853327
1326901655.22463608,0.05401877,-0.00433550,-0.99853051
1326901655.27352166,0.05384759,-0.00429534,-0.99853993
1326901655.32450533,0.05397647,-0.00433585,-0.99853279
1326901655.37352276,0.05385165,-0.00438767,-0.99853931
1326901655.42513323,0.05381111,-0.00446017,-0.99854117
1326901655.47359776,0.05408239,-0.00423899,-0.99852748
1326901655.52679300,0.05414240,-0.00428973,-0.99852401
1326901655.57763362,0.05395307,-0.00416167,-0.99853480
1326901655.61652184,0.05385547,-0.00415918,-0.99854008
1326901655.67357206,0.05378473,-0.00401941,-0.99854446
1326901655.72462726,0.05445877,-0.00377879,-0.99850887
1326901655.77419829,0.05447197,-0.00387962,-0.99850776
1326901655.82450318,0.05439068,-0.00366608,-0.99851300
1326901655.86618948,0.05447074,-0.00352964,-0.99850913
1326901655.92549324,0.05434425,-0.00348545,-0.99851618
1326901655.97756696,0.05444539,-0.00338292,-0.99851102
1326901656.02456617,0.05451157,-0.00322530,-0.99850793
1326901656.07366347,0.05449142,-0.00324113,-0.99850898
1326901656.11367750,0.05459754,-0.00318593,-0.99850336
1326901656.17364216,0.05460896,-0.00315727,-0.99850283
1326901656.22554517,0.05476106,-0.00245207,-0.99849648
1326901656.27699804,0.05497585,-0.00226318,-0.99848512
1326901656.32581401,0.05512247,-0.00254475,-0.99847636
1326901656.37784672,0.05525413,-0.00238659,-0.99846947
1326901656.42464209,0.05517070,-0.00222068,-0.99847447
1326901656.47352910,0.05553670,-0.00223578,-0.99845414
1326901656.52453279,0.05562428,-0.00217642,-0.99844940
1326901656.57352209,0.05560408,-0.00194855,-0.99845100
1326901656.62555218,0.05574364,-0.00199320,-0.99844313
1326901656.67695880,0.05581105,-0.00182867,-0.99843967
1326901656.72562647,0.05608884,-0.00163295,-0.99842445
1326901656.77615976,0.05598771,-0.00160772,-0.99843016
1326901656.82463479,0.05588515,-0.00138891,-0.99843624
1326901656.87362099,0.05575907,-0.00113802,-0.99844360
1326901656.92565227,0.05591372,-0.00094435,-0.99843516
1326901656.97362185,0.05646672,-0.00124865,-0.99840370
1326901657.02495027,0.05656630,-0.00129830,-0.99839800
1326901657.07359076,0.05660508,-0.00141094,-0.99839565
1326901657.12550235,0.05666861,-0.00118855,-0.99839234
1326901657.17363882,0.05683878,-0.00091812,-0.99838295
1326901657.22469139,0.05706021,-0.00070438,-0.99837049
1326901657.27351046,0.05696170,-0.00114405,-0.99837571
1326901657.32559228,0.05691823,-0.00093640,-0.99837840
1326901657.37356019,0.05692426,-0.00080707,-0.99837817
1326901657.42478347,0.05690125,-0.00071082,-0.99837956
1326901657.47753477,0.05719578,-0.00059867,-0.99836280
1326901657.52719021,0.05735371,-0.00038650,-0.99835385
1326901657.57757878,0.05718033,-0.00025624,-0.99836383
1326901657.61757660,0.05709537,-0.00014446,-0.99836872
1326901657.67757225,0.05720426,-0.00018754,-0.99836248
1326901657.72452307,0.05791672,-0.00007307,-0.99832142
1326901657.77755880,0.05798922,-0.00005421,-0.99831721
1326901657.82480454,0.05791215,-0.00013441,-0.99832167
1326901657.87670541,0.05773284,-0.00006388,-0.99833207
1326901657.92550874,0.05761668,0.00010338,-0.99833877
1326901657.97763824,0.05811667,0.00008640,-0.99830979
1326901658.02466416,0.05813205,0.00017417,-0.99830889
1326901658.07750893,0.05800120,0.00031335,-0.99831646
1326901658.12454987,0.05838257,0.00051589,-0.99829415
1326901658.17365623,0.05838285,0.00061773,-0.99829408
1326901658.22454071,0.05890084,0.00014344,-0.99826383
1326901658.27663350,0.05892227,0.00033749,-0.99826252
1326901658.32549667,0.05890535,0.00054586,-0.99826342
1326901658.37652969,0.05896633,0.00064608,-0.99825976
1326901658.42470884,0.05906478,0.00066512,-0.99825393
1326901658.47357225,0.05943954,0.00029628,-0.99823186
1326901658.52453923,0.05955107,0.00059581,-0.99822508
1326901658.57349539,0.05952364,0.00056129,-0.99822674
1326901658.61338925,0.05939389,0.00050184,-0.99823450
1326901658.67607856,0.05939905,0.00061969,-0.99823413
1326901658.72832727,0.05938605,0.00072692,-0.99823483
1326901658.77760553,0.05956185,0.00083134,-0.99822427
1326901658.82452440,0.05964965,0.00092667,-0.99821894
1326901658.86588168,0.05971932,0.00101816,-0.99821469
1326901658.92546964,0.05966779,0.00104627,-0.99821774
1326901658.97360921,0.05964802,0.00056852,-0.99821931
1326901659.02554250,0.05958082,0.00065959,-0.99822327
1326901659.07664132,0.05956740,0.00088440,-0.99822389
1326901659.12581134,0.05943188,0.00106129,-0.99823180
1326901659.17787027,0.05928068,0.00129045,-0.99824052
1326901659.22555566,0.05951561,0.00045432,-0.99822727
1326901659.27442455,0.05947289,0.00050686,-0.99822979
1326901659.32556319,0.05972139,0.00050391,-0.99821496
1326901659.37354660,0.05991978,0.00054098,-0.99820305
1326901659.42451668,0.06000055,0.00072420,-0.99819808
1326901659.47666669,0.05981384,0.00003074,-0.99820955
1326901659.52548909,0.05969599,-0.00010764,-0.99821660
1326901659.57751703,0.05979085,-0.00004508,-0.99821093
1326901659.61365604,0.05984936,0.00015600,-0.99820741
1326901659.67562103,0.05991506,0.00023809,-0.99820345
1326901659.72566724,0.05981854,-0.00026902,-0.99820923
1326901659.77359915,0.05960055,-0.00014060,-0.99822230
1326901659.82496977,0.05990654,-0.00040953,-0.99820391
1326901659.87655163,0.05961313,-0.00022375,-0.99822153
1326901659.92550182,0.05952061,-0.00012253,-0.99822707
1326901659.97754526,0.05965398,-0.00071131,-0.99821886
1326901660.02463841,0.05958137,-0.00056171,-0.99822329
1326901660.07355762,0.05971880,-0.00048157,-0.99821512
1326901660.12499499,0.05977758,-0.00040903,-0.99821164
1326901660.17358732,0.05973177,-0.00022934,-0.99821444
1326901660.22458768,0.05952868,-0.00121315,-0.99822586
1326901660.27284932,0.05956086,-0.00096116,-0.99822421
1326901660.32710886,0.05960966,-0.00095025,-0.99822131
1326901660.37603211,0.05958231,-0.00089073,-0.99822300
1326901660.42461944,0.05986568,-0.00080034,-0.99820612
1326901660.47751856,0.06003709,-0.00095011,-0.99819569
1326901660.52566028,0.06005322,-0.00055177,-0.99819502
1326901660.57676530,0.06010565,-0.00055872,-0.99819186
1326901660.62543440,0.05996702,-0.00036317,-0.99820029
1326901660.67653918,0.06004637,-0.00038988,-0.99819551
1326901660.72549176,0.05934194,-0.00134982,-0.99823680
1326901660.77754283,0.05941240,-0.00146499,-0.99823245
1326901660.82451105,0.05950187,-0.00158713,-0.99822693
1326901660.86551571,0.05955834,-0.00157662,-0.99822358
1326901660.92554784,0.05958078,-0.00155061,-0.99822228
1326901660.97754216,0.05927737,-0.00234199,-0.99823880
1326901661.02451587,0.05926191,-0.00224785,-0.99823994
1326901661.07656074,0.05920401,-0.00209323,-0.99824371
1326901661.12549281,0.05920025,-0.00209939,-0.99824392
1326901661.17660427,0.05913835,-0.00203234,-0.99824773
1326901661.22654176,0.05887776,-0.00270895,-0.99826152
1326901661.27998734,0.05866393,-0.00289174,-0.99827360
1326901661.32462859,0.05881469,-0.00307099,-0.99826419
1326901661.37360477,0.05878024,-0.00298520,-0.99826648
1326901661.42454290,0.05850576,-0.00264242,-0.99828357
1326901661.47766161,0.05890599,-0.00272077,-0.99825983
1326901661.52551365,0.05871367,-0.00254372,-0.99827162
1326901661.57657623,0.05856251,-0.00228616,-0.99828113
1326901661.61604571,0.05854212,-0.00231002,-0.99828227
1326901661.67352247,0.05856721,-0.00230461,-0.99828081
1326901661.72457719,0.05836709,-0.00270932,-0.99829151
1326901661.77358794,0.05853025,-0.00258263,-0.99828229
1326901661.82451510,0.05872514,-0.00253584,-0.99827097
1326901661.87661338,0.05871606,-0.00238573,-0.99827187
1326901661.92548943,0.05875616,-0.00220826,-0.99826992
1326901661.97660351,0.05864714,-0.00253992,-0.99827554
1326901662.02457142,0.05859588,-0.00253366,-0.99827857
1326901662.07352376,0.05862762,-0.00248701,-0.99827682
1326901662.12538958,0.05868130,-0.00269023,-0.99827314
1326901662.17361712,0.05866001,-0.00281111,-0.99827406
1326901662.22523355,0.05887624,-0.00325260,-0.99825999
1326901662.27314329,0.05898777,-0.00331136,-0.99825321
1326901662.32646942,0.05912388,-0.00324335,-0.99824538
1326901662.37766647,0.05908746,-0.00340979,-0.99824699
1326901662.42463279,0.05918503,-0.00324721,-0.99824175
1326901662.47360921,0.05914336,-0.00338530,-0.99824376
1326901662.52525449,0.05932811,-0.00345012,-0.99823257
1326901662.57358074,0.05940065,-0.00353041,-0.99822798
1326901662.62565660,0.05956595,-0.00352614,-0.99821814
1326901662.67596126,0.05955261,-0.00358293,-0.99821874
1326901662.72510481,0.05908196,-0.00424638,-0.99824410
1326901662.77663422,0.05913766,-0.00433985,-0.99824040
1326901662.82503653,0.05887410,-0.00413272,-0.99825686
1326901662.86533356,0.05907061,-0.00412153,-0.99824530
1326901662.92465043,0.05915568,-0.00404062,-0.99824059
1326901662.97356009,0.05885615,-0.00506803,-0.99825361
1326901663.02559304,0.05868876,-0.00503442,-0.99826363
1326901663.07724524,0.05878887,-0.00498390,-0.99825800
1326901663.12548518,0.05870067,-0.00486699,-0.99826376
1326901663.17286253,0.05878828,-0.00491699,-0.99825836
1326901663.22465277,0.05904283,-0.00457822,-0.99824495
1326901663.27765489,0.05911330,-0.00471288,-0.99824015
1326901663.32465672,0.05931983,-0.00465972,-0.99822815
1326901663.37754631,0.05930785,-0.00458811,-0.99822920
1326901663.42550755,0.05913327,-0.00438347,-0.99824047
1326901663.47720146,0.05915596,-0.00508295,-0.99823581
1326901663.52851319,0.05939483,-0.00496991,-0.99822220
1326901663.57666039,0.05952819,-0.00510540,-0.99821357
1326901663.61652899,0.05943727,-0.00485952,-0.99822021
1326901663.67670012,0.05950728,-0.00495325,-0.99821558
1326901663.72565174,0.05941251,-0.00567347,-0.99821739
1326901663.77756691,0.05943639,-0.00556306,-0.99821659
1326901663.82453656,0.05923379,-0.00546941,-0.99822915
1326901663.87665868,0.05912327,-0.00558461,-0.99823507
1326901663.92561769,0.05910574,-0.00546766,-0.99823675
1326901663.98031569,0.05886043,-0.00610915,-0.99824753
1326901664.02463961,0.05888714,-0.00615336,-0.99824568
1326901664.07762957,0.05889049,-0.00599537,-0.99824645
1326901664.12457871,0.05875930,-0.00580039,-0.99825533
1326901664.17751861,0.05846119,-0.00580205,-0.99827282
1326901664.21754742,0.05815668,-0.00518789,-0.99829399
1326901664.27758574,0.05814862,-0.00531096,-0.99829381
1326901664.32454944,0.05802426,-0.00521080,-0.99830157
1326901664.37657213,0.05814570,-0.00511217,-0.99829502
1326901664.42464352,0.05809465,-0.00509929,-0.99829806
1326901664.47350168,0.05804317,-0.00449370,-0.99830396
1326901664.52455020,0.05815361,-0.00452261,-0.99829740
1326901664.57353806,0.05817401,-0.00451507,-0.99829625
1326901664.62453294,0.05810619,-0.00467919,-0.99829944
1326901664.67346644,0.05820224,-0.00475856,-0.99829347
1326901664.72550201,0.05810286,-0.00565156,-0.99829460
1326901664.77333689,0.05805942,-0.00560073,-0.99829742
1326901664.82557464,0.05796870,-0.00550071,-0.99830325
1326901664.86551547,0.05792098,-0.00551169,-0.99830596
1326901664.92631388,0.05792236,-0.00536281,-0.99830669
1326901664.97350955,0.05803255,-0.00615752,-0.99829570
1326901665.02527213,0.05816177,-0.00601921,-0.99828903
1326901665.07331610,0.05784015,-0.00612200,-0.99830709
1326901665.12710094,0.05765684,-0.00612733,-0.99831766
1326901665.17593431,0.05758527,-0.00610808,-0.99832191
1326901665.22555280,0.05787141,-0.00690177,-0.99830019
1326901665.27349544,0.05789451,-0.00680444,-0.99829952
1326901665.32454467,0.05774504,-0.00663109,-0.99830934
1326901665.37352777,0.05754996,-0.00658622,-0.99832090
1326901665.42552471,0.05751525,-0.00633255,-0.99832454
1326901665.47354341,0.05725684,-0.00698135,-0.99833507
1326901665.52549148,0.05733642,-0.00678112,-0.99833188
1326901665.57653904,0.05729993,-0.00696267,-0.99833273
1326901665.62455702,0.05724612,-0.00675279,-0.99833726
1326901665.67350388,0.05681366,-0.00708077,-0.99835969
1326901665.72571778,0.05665582,-0.00717977,-0.99836795
1326901665.77367759,0.05665988,-0.00714058,-0.99836800
1326901665.82452321,0.05643794,-0.00702935,-0.99838136
1326901665.87753439,0.05619921,-0.00686064,-0.99839600
1326901665.92549324,0.05581007,-0.00677892,-0.99841839
1326901665.97349000,0.05574819,-0.00668345,-0.99842249
1326901666.02454424,0.05577112,-0.00658199,-0.99842188
1326901666.07357812,0.05595169,-0.00640230,-0.99841295
1326901666.12547541,0.05590014,-0.00624695,-0.99841682
1326901666.17666483,0.05604597,-0.00651252,-0.99840695
1326901666.22454977,0.05596262,-0.00645577,-0.99841199
1326901666.27918553,0.05585958,-0.00641893,-0.99841800
1326901666.32487893,0.05586367,-0.00644382,-0.99841761
1326901666.36566806,0.05593030,-0.00645895,-0.99841378
1326901666.42553663,0.05572055,-0.00636973,-0.99842608
1326901666.47762656,0.05519841,-0.00608021,-0.99845689
1326901666.52463150,0.05529045,-0.00621076,-0.99845100
1326901666.57757616,0.05533095,-0.00606744,-0.99844963
1326901666.62555480,0.05542740,-0.00606385,-0.99844431
1326901666.67761445,0.05515337,-0.00637892,-0.99845752
1326901666.72548866,0.05528619,-0.00610203,-0.99845190
1326901666.77748823,0.05529636,-0.00610865,-0.99845130
1326901666.82465672,0.05514708,-0.00602760,-0.99846005
1326901666.87754440,0.05513406,-0.00590705,-0.99846149
1326901666.92556024,0.05504679,-0.00621166,-0.99846445
